Regional Weather Roundup
Issued by NWS

Home | Current Version | Previous Version | Graphics & Text | Print | Product List | Glossary On
Versions: 1 2 3 4 5 6 7 8 9 10 11 12 13 14 15 16 17 18 19 20 21 22 23 24 25 26 27 28 29 30 31 32 33 34 35 36 37 38 39 40 41 42 43 44 45 46 47 48 49 50
000
ASUS45 KSLC 180710
RWRUT

UTAH REGIONAL WEATHER ROUNDUP
NATIONAL WEATHER SERVICE SALT LAKE CITY UT
1200 AM MST MON DEC 18 2017

UTZ001>011-023>025-180800-

NORTHERN UTAH

CITY           SKY/WX    TMP DP  RH WIND       PRES   REMARKS
BRIGHAM CITY   CLOUDY    31  24  77 CALM      30.29F
HILL AFB       CLOUDY    26  19  76 E8        30.26S WCI  17
LOGAN          CLOUDY    32  21  64 CALM      30.26F
OGDEN          MOCLDY    26  20  77 S7        30.26F WCI  18
SALT LAKE CITY PTCLDY    29  23  78 SE3       30.29R
TOOELE VALLEY  PTCLDY    19  16  86 S5        30.29S WCI  13
WENDOVER       PTCLDY    25  18  74 CALM      30.26F
HEBER CITY       N/A     16  12  86 E3        30.24R
WEST JORDAN    PTCLDY    24  21  87 SW5       30.29R WCI  18

$$

UTZ011>015-024>027-180800-

CENTRAL/NORTHEAST UTAH

CITY           SKY/WX    TMP DP  RH WIND       PRES   REMARKS
PROVO AIRPORT  PTCLDY    20  17  88 S3        30.30S
MOAB/CANYONLAN PTCLDY    22  10  60 CALM      30.15R
DELTA          PTCLDY    19  19 100 CALM      30.28R
PRICE          CLEAR     21  11  65 E3        30.15R
RICHFIELD      CLEAR     14  12  92 CALM      30.27R
ROOSEVELT      CLOUDY    19  12  73 SW3       30.20R
VERNAL         CLOUDY    21  14  74 SW5       30.18R WCI  15

$$

UTZ013>016-019>022-027-180800-

SOUTHERN UTAH

CITY           SKY/WX    TMP DP  RH WIND       PRES   REMARKS
BRYCE CANYON   CLEAR      9   5  84 W6        30.18S WCI  -1
CEDAR CITY     PTCLDY    17  14  88 SE6       30.23R WCI   9
MILFORD        CLEAR     15  12  88 S5        30.26R WCI   8
ST GEORGE      MOSUNNY   34  18  52 S5        30.22R WCI  30
HANKSVILLE     PTCLDY    19  10  68 MISG      30.20R
KANAB          CLEAR     32  16  51 N14       30.20R WCI  22
BLANDING         N/A     23   5  46 NW5       30.18S WCI  16

$$

REGIONAL REPORTS     COLORADO/ARIZONA

CITY           SKY/WX    TMP DP  RH WIND       PRES   REMARKS
CRAIG, CO      CLOUDY    11   7  84 CALM      30.17S
GRAND JUNCTION CLOUDY    23   9  55 E6        30.17R WCI  16
RIFLE, CO      CLOUDY    19   8  62 CALM      30.18R
MONTROSE, CO   CLOUDY    19   6  57 SE6       30.19S WCI  11
CORTEZ, CO     CLOUDY    15   2  56 NE8       30.13F WCI   4
COLORADO CITY    N/A     19  12  73 CALM      30.19S
PAGE, AZ       PTCLDY    31  17  56 W3        30.14S
GRAND CANYON   PTCLDY    15   1  53 CALM      30.13S
KINGMAN, AZ    CLEAR     37  17  44 E10       30.13R WCI  30
FLAGSTAFF, AZ  CLEAR     21   8  57 CALM      30.10S

$$

REGIONAL REPORTS    NEVADA/IDAHO/WYOMING

CITY           SKY/WX    TMP DP  RH WIND       PRES   REMARKS
LAS VEGAS, NV  PTCLDY    48  15  26 NE13      30.17R
ELY, NY        PTCLDY    13   7  77 SE6       30.25R WCI   4
ELKO, NV       PTCLDY    21  16  81 CALM      30.25F
POCATELLO, ID  CLOUDY    30  21  69 S12       30.23F WCI  20
BURLEY, ID     CLOUDY    30  23  75 CALM      30.23R
FORT BRIDGER,    N/A     22  15  72 W16G24    30.18S WCI   8
EVANSTON, WY   CLOUDY    18  16  92 SW10      30.17F WCI   6
ROCK SPRINGS,  CLOUDY    21  12  68 SW22      30.11R WCI   5

$$



USA.gov is the U.S. government's official web portal to all federal, state and local government web resources and services.